TimeEST,TemperatureF,Dew PointF,Humidity,Sea Level PressureIn,VisibilityMPH,Wind Direction,Wind SpeedMPH,Gust SpeedMPH,PrecipitationIn,Events,Conditions,WindDirDegrees,DateUTC
12:51 AM,30.0,17.1,59,30.01,10.0,North,6.9,-,N/A,,Mostly Cloudy,350,2012-11-08 05:51:00
1:51 AM,30.0,18.0,61,30.00,10.0,North,6.9,-,N/A,,Overcast,350,2012-11-08 06:51:00
2:51 AM,30.0,19.0,64,29.99,10.0,North,6.9,-,N/A,,Overcast,10,2012-11-08 07:51:00
3:51 AM,30.0,19.0,64,29.98,10.0,North,8.1,-,N/A,,Overcast,360,2012-11-08 08:51:00
4:51 AM,30.0,19.0,64,29.98,10.0,North,9.2,-,N/A,,Overcast,360,2012-11-08 09:51:00
5:51 AM,30.0,19.9,66,29.98,10.0,NNW,9.2,-,N/A,,Overcast,340,2012-11-08 10:51:00
6:51 AM,30.0,19.9,66,29.98,10.0,North,10.4,-,N/A,,Overcast,350,2012-11-08 11:51:00
7:51 AM,30.0,21.9,72,29.99,10.0,North,10.4,-,N/A,,Overcast,360,2012-11-08 12:51:00
8:16 AM,30.2,21.2,69,29.94,10.0,North,10.4,-,N/A,,Overcast,10,2012-11-08 13:16:00
8:28 AM,30.2,21.2,69,29.94,2.0,North,11.5,18.4,N/A,,Haze,360,2012-11-08 13:28:00
8:37 AM,30.2,21.2,69,29.94,10.0,North,9.2,-,N/A,,Overcast,360,2012-11-08 13:37:00
8:51 AM,30.0,21.9,72,29.99,10.0,North,11.5,-,N/A,,Overcast,360,2012-11-08 13:51:00
9:51 AM,30.9,24.1,76,29.98,10.0,North,11.5,-,N/A,,Overcast,350,2012-11-08 14:51:00
10:20 AM,30.2,24.8,80,29.93,2.5,North,12.7,-,N/A,,Haze,350,2012-11-08 15:20:00
10:29 AM,30.2,24.8,80,29.93,10.0,North,12.7,-,N/A,,Overcast,350,2012-11-08 15:29:00
10:51 AM,30.9,25.0,79,29.97,10.0,North,12.7,-,N/A,,Overcast,350,2012-11-08 15:51:00
11:36 AM,30.2,26.6,86,29.91,1.8,North,12.7,21.9,0.00,Snow,Light Snow,360,2012-11-08 16:36:00
11:51 AM,30.9,27.0,85,29.95,1.5,North,13.8,21.9,0.00,Snow,Light Snow,350,2012-11-08 16:51:00
12:04 PM,30.2,28.4,93,29.90,2.5,NNW,10.4,-,0.00,Snow,Light Snow,340,2012-11-08 17:04:00
12:43 PM,32.0,28.4,87,29.89,5.0,North,11.5,21.9,0.00,Snow,Light Snow,360,2012-11-08 17:43:00
12:51 PM,33.1,28.0,82,29.94,7.0,North,11.5,20.7,0.00,,Overcast,10,2012-11-08 17:51:00
1:46 PM,32.0,28.4,87,29.89,2.0,North,15.0,19.6,0.00,Snow,Light Snow,360,2012-11-08 18:46:00
1:51 PM,32.0,28.9,88,29.93,2.0,North,10.4,20.7,0.00,Snow,Light Snow,360,2012-11-08 18:51:00
2:04 PM,32.0,28.4,87,29.89,5.0,North,16.1,20.7,0.00,Snow,Light Snow,350,2012-11-08 19:04:00
2:41 PM,33.8,28.4,81,29.89,10.0,North,11.5,-,0.00,,Overcast,10,2012-11-08 19:41:00
2:51 PM,33.1,28.9,85,29.94,10.0,North,10.4,17.3,0.00,,Overcast,360,2012-11-08 19:51:00
2:58 PM,33.8,28.4,81,29.89,10.0,North,9.2,-,N/A,,Overcast,360,2012-11-08 19:58:00
3:51 PM,33.1,28.9,85,29.95,10.0,North,9.2,-,N/A,,Overcast,350,2012-11-08 20:51:00
4:51 PM,32.0,28.4,87,29.91,8.0,North,5.8,-,N/A,Snow,Light Snow,350,2012-11-08 21:51:00
5:17 PM,32.0,28.4,87,29.92,9.0,NNW,8.1,-,0.00,Snow,Light Snow,340,2012-11-08 22:17:00
5:24 PM,32.0,28.4,87,29.92,9.0,NNW,5.8,-,0.00,Snow,Light Snow,340,2012-11-08 22:24:00
5:33 PM,32.0,28.4,87,29.92,9.0,NNW,5.8,-,0.00,,Overcast,340,2012-11-08 22:33:00
5:51 PM,32.0,28.9,88,29.97,10.0,NNW,6.9,-,0.00,,Overcast,340,2012-11-08 22:51:00
6:28 PM,32.0,28.4,87,29.93,2.5,NNW,6.9,-,0.00,Snow,Light Snow,340,2012-11-08 23:28:00
6:51 PM,32.0,30.2,93,29.93,1.8,NNW,8.1,-,N/A,Snow,Light Snow,330,2012-11-08 23:51:00
7:13 PM,32.0,30.2,93,29.93,2.0,NW,9.2,-,0.01,Snow,Light Snow,320,2012-11-09 00:13:00
7:28 PM,32.0,30.2,93,29.93,1.5,NNW,6.9,-,0.01,Snow,Light Snow,330,2012-11-09 00:28:00
7:47 PM,32.0,30.2,93,29.93,2.5,NNW,8.1,-,0.01,Snow,Light Snow,330,2012-11-09 00:47:00
7:51 PM,32.0,30.0,92,29.98,2.0,NNW,6.9,-,0.01,Snow,Light Snow,330,2012-11-09 00:51:00
8:29 PM,32.0,30.2,93,29.94,5.0,NNW,8.1,17.3,N/A,Snow,Light Snow,330,2012-11-09 01:29:00
8:51 PM,32.0,30.0,92,29.99,10.0,North,8.1,-,0.01,,Overcast,350,2012-11-09 01:51:00
9:51 PM,33.1,28.9,85,29.98,10.0,NNW,6.9,-,N/A,,Overcast,330,2012-11-09 02:51:00
10:51 PM,33.1,27.0,78,29.98,10.0,NNW,5.8,-,N/A,,Overcast,330,2012-11-09 03:51:00
11:51 PM,33.1,28.0,82,29.98,10.0,North,6.9,-,N/A,,Overcast,350,2012-11-09 04:51:00